Time,TemperatureF,DewpointF,PressureIn,WindDirection,WindDirectionDegrees,WindSpeedMPH,WindSpeedGustMPH,Humidity,HourlyPrecipIn,Conditions,Clouds,dailyrainin,SoftwareType,DateUTC
2013-08-08 00:01:00,65.1,59.5,30.15,NW,315,0.0,0.0,82,0.00,,,0.00,pywws,2013-08-08 04:01:00,
2013-08-08 00:02:00,65.1,59.5,30.16,West,270,0.0,0.0,82,0.00,,,0.00,pywws,2013-08-08 04:02:00,
2013-08-08 00:04:00,65.1,59.5,30.16,West,270,0.0,0.0,82,0.00,,,0.00,pywws,2013-08-08 04:04:00,
2013-08-08 00:06:00,65.1,59.5,30.16,West,270,0.0,0.0,82,0.00,,,0.00,pywws,2013-08-08 04:06:00,
2013-08-08 00:13:00,65.1,59.5,30.16,West,270,0.0,0.0,82,0.00,,,0.00,pywws,2013-08-08 04:13:00,
2013-08-08 00:18:00,65.1,59.5,30.16,West,270,0.0,0.0,82,0.00,,,0.00,pywws,2013-08-08 04:18:00,
2013-08-08 00:24:00,65.1,59.8,30.15,West,270,0.0,0.0,83,0.00,,,0.00,pywws,2013-08-08 04:24:00,
2013-08-08 00:30:00,65.1,59.8,30.14,West,270,0.0,0.0,83,0.00,,,0.00,pywws,2013-08-08 04:30:00,
2013-08-08 00:36:00,65.1,59.8,30.14,West,270,0.0,0.0,83,0.00,,,0.00,pywws,2013-08-08 04:36:00,
2013-08-08 00:42:00,65.3,60.0,30.14,North,0,0.0,0.0,83,0.00,,,0.00,pywws,2013-08-08 04:42:00,
2013-08-08 00:48:00,65.1,59.8,30.14,West,270,0.0,0.0,83,0.00,,,0.00,pywws,2013-08-08 04:48:00,
2013-08-08 00:54:00,65.1,59.8,30.14,West,270,0.0,0.0,83,0.00,,,0.00,pywws,2013-08-08 04:54:00,
2013-08-08 01:00:00,65.1,60.2,30.13,West,270,0.0,0.0,84,0.00,,,0.00,pywws,2013-08-08 05:00:00,
2013-08-08 01:06:00,65.3,60.3,30.13,West,270,0.0,0.0,84,0.00,,,0.00,pywws,2013-08-08 05:06:00,
2013-08-08 01:12:00,65.3,60.3,30.13,South,180,0.0,0.0,84,0.00,,,0.00,pywws,2013-08-08 05:12:00,
2013-08-08 01:18:00,65.3,60.3,30.13,West,270,0.0,0.0,84,0.00,,,0.00,pywws,2013-08-08 05:18:00,
2013-08-08 01:24:00,65.5,60.5,30.13,West,270,0.0,0.0,84,0.00,,,0.00,pywws,2013-08-08 05:24:00,
2013-08-08 01:30:00,65.5,60.5,30.13,South,180,0.0,0.0,84,0.00,,,0.00,pywws,2013-08-08 05:30:00,
2013-08-08 01:35:00,65.5,60.5,30.13,West,270,0.0,0.0,84,0.00,,,0.00,pywws,2013-08-08 05:35:00,
2013-08-08 01:41:00,65.5,60.8,30.13,West,270,0.0,0.0,85,0.00,,,0.00,pywws,2013-08-08 05:41:00,
2013-08-08 01:46:00,65.7,60.7,30.13,South,180,0.0,0.0,84,0.00,,,0.00,pywws,2013-08-08 05:46:00,
2013-08-08 01:54:00,65.8,60.9,30.13,West,270,0.0,0.0,84,0.00,,,0.00,pywws,2013-08-08 05:54:00,
2013-08-08 01:59:00,65.8,60.9,30.12,East,90,0.0,0.0,84,0.00,,,0.00,pywws,2013-08-08 05:59:00,
2013-08-08 02:05:00,65.8,60.9,30.13,West,270,0.0,0.0,84,0.00,,,0.00,pywws,2013-08-08 06:05:00,
2013-08-08 02:10:00,66.0,61.0,30.12,West,270,0.0,0.0,84,0.00,,,0.00,pywws,2013-08-08 06:10:00,
2013-08-08 02:18:00,65.8,60.9,30.12,NW,315,0.0,0.0,84,0.00,,,0.00,pywws,2013-08-08 06:18:00,
2013-08-08 02:23:00,65.8,61.2,30.12,South,180,0.0,0.0,85,0.00,,,0.00,pywws,2013-08-08 06:23:00,
2013-08-08 02:29:00,66.0,61.4,30.12,East,90,0.0,0.0,85,0.00,,,0.00,pywws,2013-08-08 06:29:00,
2013-08-08 02:34:00,66.0,61.4,30.12,West,270,0.0,0.0,85,0.00,,,0.00,pywws,2013-08-08 06:34:00,
2013-08-08 02:40:00,66.0,61.4,30.11,West,270,0.0,0.0,85,0.00,,,0.00,pywws,2013-08-08 06:40:00,
2013-08-08 02:46:00,66.0,61.4,30.11,West,270,0.0,0.0,85,0.00,,,0.00,pywws,2013-08-08 06:46:00,
2013-08-08 02:52:00,66.0,61.4,30.11,West,270,0.0,0.0,85,0.00,,,0.00,pywws,2013-08-08 06:52:00,
2013-08-08 02:58:00,66.0,61.4,30.11,West,270,0.0,0.0,85,0.00,,,0.00,pywws,2013-08-08 06:58:00,
2013-08-08 03:04:00,66.0,61.4,30.12,North,0,0.0,0.0,85,0.00,,,0.00,pywws,2013-08-08 07:04:00,
2013-08-08 03:10:00,66.0,61.7,30.11,West,270,0.0,0.0,86,0.00,,,0.00,pywws,2013-08-08 07:10:00,
2013-08-08 03:16:00,66.2,61.6,30.11,West,270,0.0,0.0,85,0.00,,,0.00,pywws,2013-08-08 07:16:00,
2013-08-08 03:22:00,66.0,61.7,30.11,West,270,0.0,0.0,86,0.00,,,0.00,pywws,2013-08-08 07:22:00,
2013-08-08 03:31:00,66.2,61.6,30.11,West,270,0.0,0.0,85,0.00,,,0.00,pywws,2013-08-08 07:31:00,
2013-08-08 03:38:00,66.2,61.6,30.11,West,270,0.0,0.7,85,0.00,,,0.00,pywws,2013-08-08 07:38:00,
2013-08-08 03:44:00,66.4,61.7,30.11,SW,225,0.0,0.0,85,0.00,,,0.00,pywws,2013-08-08 07:44:00,
2013-08-08 03:51:00,66.4,61.7,30.11,North,0,0.0,0.0,85,0.00,,,0.00,pywws,2013-08-08 07:51:00,
2013-08-08 03:57:00,66.4,61.7,30.11,West,270,0.0,0.0,85,0.00,,,0.00,pywws,2013-08-08 07:57:00,
2013-08-08 04:02:00,66.4,61.7,30.11,West,270,0.0,0.0,85,0.00,,,0.00,pywws,2013-08-08 08:02:00,
2013-08-08 04:08:00,66.2,61.6,30.11,West,270,0.0,0.0,85,0.00,,,0.00,pywws,2013-08-08 08:08:00,
2013-08-08 04:14:00,66.4,62.1,30.11,West,270,0.0,0.0,86,0.00,,,0.00,pywws,2013-08-08 08:14:00,
2013-08-08 04:20:00,66.4,62.1,30.10,East,90,0.0,0.7,86,0.00,,,0.00,pywws,2013-08-08 08:20:00,
2013-08-08 04:26:00,66.2,61.9,30.10,West,270,0.0,0.0,86,0.00,,,0.00,pywws,2013-08-08 08:26:00,
2013-08-08 04:31:00,66.2,61.9,30.10,West,270,0.0,0.0,86,0.00,,,0.00,pywws,2013-08-08 08:31:00,
2013-08-08 04:37:00,66.2,61.9,30.10,West,270,0.0,0.0,86,0.01,,,0.01,pywws,2013-08-08 08:37:00,
2013-08-08 04:42:00,65.5,62.1,30.10,West,270,0.0,0.0,89,0.05,,,0.05,pywws,2013-08-08 08:42:00,
2013-08-08 04:48:00,65.1,62.1,30.10,North,0,0.0,0.0,90,0.05,,,0.05,pywws,2013-08-08 08:48:00,
2013-08-08 04:54:00,64.9,62.6,30.10,West,270,0.0,0.0,92,0.05,,,0.05,pywws,2013-08-08 08:54:00,
2013-08-08 05:00:00,65.1,63.0,30.09,North,0,0.0,0.0,93,0.05,,,0.05,pywws,2013-08-08 09:00:00,
2013-08-08 05:06:00,64.9,63.5,30.09,North,0,0.0,0.0,95,0.05,,,0.05,pywws,2013-08-08 09:06:00,
2013-08-08 05:12:00,64.9,63.5,30.09,North,0,0.0,0.0,95,0.05,,,0.05,pywws,2013-08-08 09:12:00,
2013-08-08 05:18:00,64.9,63.5,30.09,West,270,0.0,0.0,95,0.05,,,0.05,pywws,2013-08-08 09:18:00,
2013-08-08 05:24:00,64.9,63.5,30.09,West,270,0.0,0.0,95,0.05,,,0.05,pywws,2013-08-08 09:24:00,
2013-08-08 05:30:00,65.1,63.6,30.10,West,270,0.0,0.0,95,0.05,,,0.05,pywws,2013-08-08 09:30:00,
2013-08-08 05:35:00,65.1,63.9,30.10,West,270,0.0,0.0,96,0.06,,,0.06,pywws,2013-08-08 09:35:00,
2013-08-08 05:41:00,64.9,63.8,30.10,North,0,0.0,0.0,96,0.05,,,0.08,pywws,2013-08-08 09:41:00,
2013-08-08 05:46:00,65.1,63.9,30.09,South,180,0.0,0.0,96,0.05,,,0.09,pywws,2013-08-08 09:46:00,
2013-08-08 05:54:00,65.1,63.9,30.09,North,0,0.0,0.0,96,0.05,,,0.09,pywws,2013-08-08 09:54:00,
2013-08-08 05:59:00,65.1,63.9,30.09,West,270,0.0,0.0,96,0.05,,,0.09,pywws,2013-08-08 09:59:00,
2013-08-08 06:05:00,65.1,64.2,30.10,West,270,0.0,0.0,97,0.05,,,0.09,pywws,2013-08-08 10:05:00,
2013-08-08 06:11:00,65.3,64.4,30.10,West,270,0.0,0.0,97,0.05,,,0.09,pywws,2013-08-08 10:11:00,
2013-08-08 06:17:00,65.3,64.4,30.09,West,270,0.0,0.0,97,0.05,,,0.09,pywws,2013-08-08 10:17:00,
2013-08-08 06:22:00,65.3,64.4,30.09,West,270,0.0,0.0,97,0.05,,,0.09,pywws,2013-08-08 10:22:00,
2013-08-08 06:28:00,65.5,64.6,30.09,West,270,0.0,0.0,97,0.05,,,0.09,pywws,2013-08-08 10:28:00,
2013-08-08 06:34:00,65.7,64.8,30.09,West,270,0.0,0.0,97,0.04,,,0.09,pywws,2013-08-08 10:34:00,
2013-08-08 06:39:00,65.5,64.9,30.09,West,270,0.0,0.0,98,0.02,,,0.09,pywws,2013-08-08 10:39:00,
2013-08-08 06:45:00,65.8,65.3,30.09,North,0,0.0,0.0,98,0.00,,,0.09,pywws,2013-08-08 10:45:00,
2013-08-08 06:50:00,66.2,65.3,30.09,NW,315,0.0,0.0,97,0.00,,,0.09,pywws,2013-08-08 10:50:00,
2013-08-08 06:56:00,66.0,65.4,30.10,West,270,0.0,0.0,98,0.00,,,0.09,pywws,2013-08-08 10:56:00,
2013-08-08 07:02:00,66.2,65.3,30.09,West,270,0.0,0.0,97,0.00,,,0.09,pywws,2013-08-08 11:02:00,
2013-08-08 07:07:00,66.2,65.3,30.10,West,270,0.0,0.0,97,0.00,,,0.09,pywws,2013-08-08 11:07:00,
2013-08-08 07:13:00,66.4,65.5,30.10,West,270,0.0,0.0,97,0.00,,,0.09,pywws,2013-08-08 11:13:00,
2013-08-08 07:18:00,66.9,66.0,30.10,West,270,0.0,0.0,97,0.01,,,0.11,pywws,2013-08-08 11:18:00,
2013-08-08 07:25:00,67.1,66.2,30.09,West,270,0.0,0.0,97,0.01,,,0.11,pywws,2013-08-08 11:25:00,
2013-08-08 07:30:00,67.1,66.2,30.09,West,270,0.0,0.0,97,0.01,,,0.11,pywws,2013-08-08 11:30:00,
2013-08-08 07:38:00,67.1,66.2,30.09,East,90,0.0,0.0,97,0.01,,,0.11,pywws,2013-08-08 11:38:00,
2013-08-08 07:43:00,67.3,66.4,30.09,West,270,0.0,0.0,97,0.01,,,0.11,pywws,2013-08-08 11:43:00,
2013-08-08 07:49:00,67.6,66.8,30.10,North,0,0.0,0.0,97,0.01,,,0.11,pywws,2013-08-08 11:49:00,
2013-08-08 07:55:00,67.8,66.9,30.09,North,0,0.0,0.0,97,0.01,,,0.11,pywws,2013-08-08 11:55:00,
2013-08-08 08:02:00,68.0,66.5,30.09,West,270,0.0,0.0,95,0.01,,,0.11,pywws,2013-08-08 12:02:00,
2013-08-08 08:07:00,68.2,66.7,30.09,West,270,0.0,0.0,95,0.01,,,0.11,pywws,2013-08-08 12:07:00,
2013-08-08 08:13:00,68.2,66.7,30.09,North,0,0.0,0.0,95,0.01,,,0.11,pywws,2013-08-08 12:13:00,
2013-08-08 08:20:00,68.2,66.7,30.09,North,0,0.0,0.0,95,0.00,,,0.11,pywws,2013-08-08 12:20:00,
2013-08-08 08:26:00,68.5,67.0,30.10,West,270,0.0,0.0,95,0.00,,,0.11,pywws,2013-08-08 12:26:00,
2013-08-08 08:32:00,68.9,67.4,30.09,North,0,0.0,0.0,95,0.00,,,0.11,pywws,2013-08-08 12:32:00,
2013-08-08 08:38:00,68.9,67.4,30.09,North,0,0.0,0.0,95,0.00,,,0.11,pywws,2013-08-08 12:38:00,
2013-08-08 08:43:00,69.4,67.9,30.09,North,0,0.0,0.0,95,0.00,,,0.11,pywws,2013-08-08 12:43:00,
2013-08-08 08:50:00,69.6,68.1,30.09,West,270,0.0,0.0,95,0.00,,,0.11,pywws,2013-08-08 12:50:00,
2013-08-08 08:55:00,69.8,68.0,30.09,West,270,0.0,0.0,94,0.00,,,0.11,pywws,2013-08-08 12:55:00,
2013-08-08 09:01:00,71.1,69.2,30.09,West,270,0.0,0.0,94,0.00,,,0.11,pywws,2013-08-08 13:01:00,
2013-08-08 09:06:00,71.1,69.2,30.10,West,270,0.0,0.0,94,0.00,,,0.11,pywws,2013-08-08 13:06:00,
2013-08-08 09:12:00,71.4,69.3,30.10,West,270,0.0,0.0,93,0.00,,,0.11,pywws,2013-08-08 13:12:00,
2013-08-08 09:18:00,71.2,69.1,30.09,SW,225,0.0,0.0,93,0.00,,,0.11,pywws,2013-08-08 13:18:00,
2013-08-08 09:23:00,71.8,69.0,30.10,West,270,0.0,0.0,91,0.00,,,0.11,pywws,2013-08-08 13:23:00,
2013-08-08 09:29:00,71.8,69.0,30.10,West,270,0.0,0.0,91,0.00,,,0.11,pywws,2013-08-08 13:29:00,
2013-08-08 09:35:00,71.6,68.5,30.10,West,270,0.0,0.0,90,0.00,,,0.11,pywws,2013-08-08 13:35:00,
2013-08-08 09:41:00,71.8,68.7,30.10,West,270,0.0,0.7,90,0.00,,,0.11,pywws,2013-08-08 13:41:00,
2013-08-08 09:46:00,72.0,68.5,30.10,West,270,0.0,0.0,89,0.00,,,0.11,pywws,2013-08-08 13:46:00,
2013-08-08 09:54:00,72.1,68.7,30.10,West,270,0.0,0.0,89,0.00,,,0.11,pywws,2013-08-08 13:54:00,
2013-08-08 09:59:00,72.0,68.5,30.10,West,270,0.0,0.0,89,0.00,,,0.11,pywws,2013-08-08 13:59:00,
2013-08-08 10:05:00,72.0,68.5,30.10,West,270,0.0,0.0,89,0.00,,,0.11,pywws,2013-08-08 14:05:00,
2013-08-08 10:11:00,72.3,68.9,30.10,West,270,0.0,0.0,89,0.00,,,0.11,pywws,2013-08-08 14:11:00,
2013-08-08 10:17:00,72.0,68.5,30.10,East,90,0.0,0.7,89,0.00,,,0.11,pywws,2013-08-08 14:17:00,
2013-08-08 10:22:00,73.4,70.0,30.10,South,180,0.0,0.0,89,0.00,,,0.11,pywws,2013-08-08 14:22:00,
2013-08-08 10:28:00,73.9,70.5,30.10,West,270,0.0,0.0,89,0.00,,,0.11,pywws,2013-08-08 14:28:00,
2013-08-08 10:34:00,75.4,71.2,30.10,SW,225,0.0,0.0,87,0.00,,,0.11,pywws,2013-08-08 14:34:00,
2013-08-08 10:40:00,75.4,70.5,30.10,South,180,0.0,0.0,85,0.00,,,0.11,pywws,2013-08-08 14:40:00,
2013-08-08 10:46:00,74.8,70.0,30.10,West,270,0.0,0.0,85,0.00,,,0.11,pywws,2013-08-08 14:46:00,
2013-08-08 10:52:00,75.0,69.8,30.09,West,270,0.0,0.0,84,0.00,,,0.11,pywws,2013-08-08 14:52:00,
2013-08-08 10:58:00,75.0,70.2,30.09,North,0,0.0,0.0,85,0.00,,,0.11,pywws,2013-08-08 14:58:00,
2013-08-08 11:03:00,74.8,70.0,30.09,West,270,0.0,0.0,85,0.00,,,0.11,pywws,2013-08-08 15:03:00,
2013-08-08 11:09:00,75.0,70.2,30.09,West,270,0.0,0.0,85,0.00,,,0.11,pywws,2013-08-08 15:09:00,
2013-08-08 11:14:00,75.4,70.2,30.09,South,180,0.0,0.0,84,0.00,,,0.11,pywws,2013-08-08 15:14:00,
2013-08-08 11:20:00,74.8,69.7,30.09,West,270,0.0,0.0,84,0.00,,,0.11,pywws,2013-08-08 15:20:00,
2013-08-08 11:26:00,74.5,69.7,30.09,West,270,0.0,0.0,85,0.00,,,0.11,pywws,2013-08-08 15:26:00,
2013-08-08 11:33:00,73.6,68.8,30.09,West,270,0.0,0.0,85,0.00,,,0.11,pywws,2013-08-08 15:33:00,
2013-08-08 11:38:00,73.0,68.3,30.09,West,270,0.0,0.0,85,0.00,,,0.11,pywws,2013-08-08 15:38:00,
2013-08-08 11:44:00,73.4,69.3,30.09,West,270,0.0,0.0,87,0.00,,,0.11,pywws,2013-08-08 15:44:00,
2013-08-08 11:50:00,73.4,69.3,30.09,West,270,0.0,0.0,87,0.00,,,0.11,pywws,2013-08-08 15:50:00,
2013-08-08 11:55:00,74.3,69.8,30.09,West,270,0.0,0.0,86,0.00,,,0.11,pywws,2013-08-08 15:55:00,
2013-08-08 12:01:00,75.9,71.1,30.08,West,270,0.0,0.0,85,0.00,,,0.11,pywws,2013-08-08 16:01:00,
2013-08-08 12:06:00,75.6,70.4,30.08,West,270,0.0,0.0,84,0.00,,,0.11,pywws,2013-08-08 16:06:00,
2013-08-08 12:12:00,75.7,70.5,30.08,West,270,0.0,0.0,84,0.00,,,0.11,pywws,2013-08-08 16:12:00,
2013-08-08 12:19:00,75.6,70.0,30.08,West,270,0.0,0.0,83,0.00,,,0.11,pywws,2013-08-08 16:19:00,
2013-08-08 12:25:00,75.2,69.7,30.08,West,270,0.0,0.0,83,0.00,,,0.11,pywws,2013-08-08 16:25:00,
2013-08-08 12:31:00,75.2,69.7,30.08,NW,315,0.0,0.0,83,0.00,,,0.11,pywws,2013-08-08 16:31:00,
2013-08-08 12:38:00,75.4,69.8,30.08,North,0,0.0,0.0,83,0.00,,,0.11,pywws,2013-08-08 16:38:00,
2013-08-08 12:43:00,75.6,70.0,30.08,NW,315,0.0,0.0,83,0.00,,,0.11,pywws,2013-08-08 16:43:00,
2013-08-08 12:49:00,77.4,71.4,30.08,SW,225,0.0,0.0,82,0.00,,,0.11,pywws,2013-08-08 16:49:00,
2013-08-08 12:54:00,77.5,71.2,30.08,South,180,0.0,0.0,81,0.00,,,0.11,pywws,2013-08-08 16:54:00,
2013-08-08 13:01:00,75.7,69.1,30.09,West,270,0.0,0.0,80,0.00,,,0.11,pywws,2013-08-08 17:01:00,
2013-08-08 13:06:00,75.2,69.3,30.08,West,270,0.0,0.0,82,0.00,,,0.11,pywws,2013-08-08 17:06:00,
2013-08-08 13:12:00,75.0,69.8,30.09,West,270,0.0,0.0,84,0.00,,,0.11,pywws,2013-08-08 17:12:00,
2013-08-08 13:18:00,75.6,70.4,30.09,West,270,0.0,0.0,84,0.00,,,0.11,pywws,2013-08-08 17:18:00,
2013-08-08 13:23:00,76.1,70.9,30.09,West,270,0.0,0.0,84,0.00,,,0.11,pywws,2013-08-08 17:23:00,
2013-08-08 13:29:00,76.6,71.1,30.09,West,270,0.0,0.0,83,0.00,,,0.11,pywws,2013-08-08 17:29:00,
2013-08-08 13:34:00,77.5,71.6,30.09,West,270,0.0,0.0,82,0.00,,,0.11,pywws,2013-08-08 17:34:00,
2013-08-08 13:40:00,79.7,73.0,30.09,West,270,0.0,0.0,80,0.00,,,0.11,pywws,2013-08-08 17:40:00,
2013-08-08 13:46:00,79.5,71.3,30.09,West,270,0.0,0.0,76,0.00,,,0.11,pywws,2013-08-08 17:46:00,
2013-08-08 13:51:00,79.3,70.7,30.09,West,270,0.0,0.0,75,0.00,,,0.11,pywws,2013-08-08 17:51:00,
2013-08-08 13:57:00,78.3,70.4,30.09,West,270,0.0,0.7,77,0.00,,,0.11,pywws,2013-08-08 17:57:00,
2013-08-08 14:02:00,77.5,69.7,30.09,West,270,0.0,0.0,77,0.00,,,0.11,pywws,2013-08-08 18:02:00,
2013-08-08 14:08:00,79.2,71.3,30.08,SE,135,0.0,0.0,77,0.00,,,0.11,pywws,2013-08-08 18:08:00,
2013-08-08 14:14:00,80.4,71.4,30.08,West,270,0.0,0.0,74,0.00,,,0.11,pywws,2013-08-08 18:14:00,
2013-08-08 14:19:00,81.7,71.8,30.08,West,270,0.0,0.0,72,0.00,,,0.11,pywws,2013-08-08 18:19:00,
2013-08-08 14:25:00,80.4,70.5,30.08,South,180,0.0,0.0,72,0.00,,,0.11,pywws,2013-08-08 18:25:00,
2013-08-08 14:30:00,78.3,69.3,30.07,West,270,0.0,0.0,74,0.00,,,0.11,pywws,2013-08-08 18:30:00,
2013-08-08 14:36:00,79.0,70.8,30.08,SW,225,0.0,0.0,76,0.00,,,0.11,pywws,2013-08-08 18:36:00,
2013-08-08 14:42:00,80.1,71.4,30.07,South,180,0.0,0.0,75,0.00,,,0.11,pywws,2013-08-08 18:42:00,
2013-08-08 14:47:00,81.7,72.2,30.08,SW,225,0.0,0.7,73,0.00,,,0.11,pywws,2013-08-08 18:47:00,
2013-08-08 14:53:00,78.4,69.8,30.08,South,180,0.0,0.0,75,0.00,,,0.11,pywws,2013-08-08 18:53:00,
2013-08-08 14:58:00,79.0,70.4,30.08,West,270,0.0,0.0,75,0.00,,,0.11,pywws,2013-08-08 18:58:00,
2013-08-08 15:04:00,81.1,72.8,30.08,West,270,0.0,0.0,76,0.00,,,0.11,pywws,2013-08-08 19:04:00,
2013-08-08 15:10:00,81.1,71.2,30.07,East,90,0.0,0.0,72,0.00,,,0.11,pywws,2013-08-08 19:10:00,
2013-08-08 15:15:00,81.3,71.0,30.07,North,0,0.0,0.0,71,0.00,,,0.11,pywws,2013-08-08 19:15:00,
2013-08-08 15:21:00,80.2,70.4,30.07,South,180,0.0,0.0,72,0.00,,,0.11,pywws,2013-08-08 19:21:00,
2013-08-08 15:26:00,79.9,70.0,30.06,West,270,0.0,0.0,72,0.00,,,0.11,pywws,2013-08-08 19:26:00,
2013-08-08 15:32:00,79.2,69.7,30.06,West,270,0.0,0.0,73,0.00,,,0.11,pywws,2013-08-08 19:32:00,
2013-08-08 15:38:00,81.5,71.6,30.06,West,270,0.0,0.0,72,0.00,,,0.11,pywws,2013-08-08 19:38:00,
2013-08-08 15:43:00,81.7,71.8,30.07,SE,135,0.0,0.0,72,0.00,,,0.11,pywws,2013-08-08 19:43:00,
2013-08-08 15:49:00,81.0,70.6,30.07,South,180,0.0,0.0,71,0.00,,,0.11,pywws,2013-08-08 19:49:00,
2013-08-08 15:54:00,80.2,70.4,30.06,East,90,0.0,0.0,72,0.00,,,0.11,pywws,2013-08-08 19:54:00,
2013-08-08 16:00:00,83.5,72.6,30.07,West,270,0.0,0.0,70,0.00,,,0.11,pywws,2013-08-08 20:00:00,
2013-08-08 16:06:00,84.2,71.6,30.06,West,270,0.0,0.0,66,0.00,,,0.11,pywws,2013-08-08 20:06:00,
2013-08-08 16:11:00,83.5,71.3,30.06,SW,225,0.0,0.0,67,0.00,,,0.11,pywws,2013-08-08 20:11:00,
2013-08-08 16:17:00,81.7,70.1,30.06,East,90,0.0,0.0,68,0.00,,,0.11,pywws,2013-08-08 20:17:00,
2013-08-08 16:22:00,79.3,68.7,30.07,West,270,0.0,0.0,70,0.00,,,0.11,pywws,2013-08-08 20:22:00,
2013-08-08 16:28:00,81.0,70.6,30.06,South,180,0.0,0.0,71,0.00,,,0.11,pywws,2013-08-08 20:28:00,
2013-08-08 16:34:00,82.9,71.7,30.06,East,90,0.0,0.0,69,0.00,,,0.11,pywws,2013-08-08 20:34:00,
2013-08-08 16:39:00,83.5,72.2,30.05,West,270,0.0,0.0,69,0.00,,,0.11,pywws,2013-08-08 20:39:00,
2013-08-08 16:45:00,83.8,71.7,30.06,South,180,0.0,0.7,67,0.00,,,0.11,pywws,2013-08-08 20:45:00,
2013-08-08 16:50:00,84.0,71.9,30.05,NW,315,0.0,0.0,67,0.00,,,0.11,pywws,2013-08-08 20:50:00,
2013-08-08 16:56:00,83.8,71.7,30.05,SE,135,0.0,0.0,67,0.00,,,0.11,pywws,2013-08-08 20:56:00,
2013-08-08 17:02:00,80.1,69.4,30.06,North,0,0.0,0.0,70,0.00,,,0.11,pywws,2013-08-08 21:02:00,
2013-08-08 17:07:00,80.1,70.2,30.06,South,180,0.0,0.0,72,0.00,,,0.11,pywws,2013-08-08 21:07:00,
2013-08-08 17:13:00,79.3,69.9,30.05,West,270,0.0,0.0,73,0.00,,,0.11,pywws,2013-08-08 21:13:00,
2013-08-08 17:19:00,79.3,70.3,30.06,West,270,0.0,0.0,74,0.00,,,0.11,pywws,2013-08-08 21:19:00,
2013-08-08 17:24:00,79.0,70.0,30.06,West,270,0.0,0.0,74,0.00,,,0.11,pywws,2013-08-08 21:24:00,
2013-08-08 17:30:00,78.6,70.0,30.05,SE,135,0.0,0.0,75,0.00,,,0.11,pywws,2013-08-08 21:30:00,
2013-08-08 17:35:00,78.6,70.4,30.05,East,90,0.0,0.0,76,0.00,,,0.11,pywws,2013-08-08 21:35:00,
2013-08-08 17:41:00,78.6,70.8,30.04,West,270,0.0,0.0,77,0.00,,,0.11,pywws,2013-08-08 21:41:00,
2013-08-08 17:48:00,78.3,70.4,30.04,West,270,0.0,0.0,77,0.00,,,0.11,pywws,2013-08-08 21:48:00,
2013-08-08 17:53:00,78.3,70.8,30.04,West,270,0.0,0.0,78,0.00,,,0.11,pywws,2013-08-08 21:53:00,
2013-08-08 17:58:00,77.9,70.5,30.04,West,270,0.0,0.0,78,0.00,,,0.11,pywws,2013-08-08 21:58:00,
2013-08-08 18:04:00,77.9,70.8,30.04,East,90,0.0,0.0,79,0.00,,,0.11,pywws,2013-08-08 22:04:00,
2013-08-08 18:09:00,78.1,71.0,30.05,West,270,0.0,0.0,79,0.00,,,0.11,pywws,2013-08-08 22:09:00,
2013-08-08 18:14:00,78.1,71.0,30.05,West,270,0.0,0.0,79,0.00,,,0.11,pywws,2013-08-08 22:14:00,
2013-08-08 18:22:00,78.1,71.0,30.05,West,270,0.0,0.0,79,0.00,,,0.11,pywws,2013-08-08 22:22:00,
2013-08-08 18:27:00,78.3,71.2,30.05,North,0,0.0,0.0,79,0.00,,,0.11,pywws,2013-08-08 22:27:00,
2013-08-08 18:33:00,77.9,71.2,30.05,West,270,0.0,0.0,80,0.00,,,0.11,pywws,2013-08-08 22:33:00,
2013-08-08 18:39:00,77.5,70.5,30.04,West,270,0.0,0.0,79,0.00,,,0.11,pywws,2013-08-08 22:39:00,
2013-08-08 18:45:00,77.2,70.9,30.05,West,270,0.0,0.0,81,0.00,,,0.11,pywws,2013-08-08 22:45:00,
2013-08-08 18:53:00,76.8,70.9,30.05,South,180,0.0,0.0,82,0.00,,,0.11,pywws,2013-08-08 22:53:00,
2013-08-08 18:58:00,76.8,71.3,30.05,South,180,0.0,0.0,83,0.00,,,0.11,pywws,2013-08-08 22:58:00,
2013-08-08 19:04:00,76.5,71.3,30.05,South,180,0.0,0.0,84,0.00,,,0.11,pywws,2013-08-08 23:04:00,
2013-08-08 19:10:00,76.1,70.9,30.05,West,270,0.0,0.0,84,0.00,,,0.11,pywws,2013-08-08 23:10:00,
2013-08-08 19:16:00,75.9,70.7,30.06,West,270,0.0,0.0,84,0.00,,,0.11,pywws,2013-08-08 23:16:00,
2013-08-08 19:21:00,75.6,70.7,30.05,West,270,0.0,0.0,85,0.00,,,0.11,pywws,2013-08-08 23:21:00,
2013-08-08 19:27:00,75.4,70.5,30.06,West,270,0.0,0.0,85,0.00,,,0.11,pywws,2013-08-08 23:27:00,
2013-08-08 19:33:00,75.2,70.4,30.06,South,180,0.0,0.0,85,0.00,,,0.11,pywws,2013-08-08 23:33:00,
2013-08-08 19:38:00,75.0,70.9,30.06,West,270,0.0,0.0,87,0.00,,,0.11,pywws,2013-08-08 23:38:00,
2013-08-08 19:44:00,74.8,70.7,30.06,West,270,0.0,0.0,87,0.00,,,0.11,pywws,2013-08-08 23:44:00,
2013-08-08 19:50:00,74.5,70.3,30.06,West,270,0.0,0.0,87,0.00,,,0.11,pywws,2013-08-08 23:50:00,
2013-08-08 19:57:00,74.3,70.5,30.06,West,270,0.0,0.0,88,0.00,,,0.11,pywws,2013-08-08 23:57:00,
2013-08-08 20:02:00,74.1,70.3,30.06,East,90,0.0,0.0,88,0.00,,,0.11,pywws,2013-08-09 00:02:00,
2013-08-08 20:08:00,74.1,70.3,30.05,West,270,0.0,0.0,88,0.00,,,0.11,pywws,2013-08-09 00:08:00,
2013-08-08 20:14:00,73.9,70.2,30.06,West,270,0.0,0.0,88,0.00,,,0.11,pywws,2013-08-09 00:14:00,
2013-08-08 20:19:00,73.6,70.1,30.06,West,270,0.0,0.0,89,0.00,,,0.11,pywws,2013-08-09 00:19:00,
2013-08-08 20:25:00,73.2,69.4,30.06,West,270,0.0,0.0,88,0.00,,,0.11,pywws,2013-08-09 00:25:00,
2013-08-08 20:31:00,73.2,69.8,30.06,West,270,0.0,0.0,89,0.00,,,0.11,pywws,2013-08-09 00:31:00,
2013-08-08 20:36:00,73.0,69.6,30.07,West,270,0.0,0.0,89,0.00,,,0.11,pywws,2013-08-09 00:36:00,
2013-08-08 20:42:00,72.9,69.7,30.07,West,270,0.0,0.0,90,0.00,,,0.11,pywws,2013-08-09 00:42:00,
2013-08-08 20:48:00,73.0,69.9,30.07,West,270,0.0,0.0,90,0.00,,,0.11,pywws,2013-08-09 00:48:00,
2013-08-08 20:54:00,72.9,69.7,30.08,West,270,0.0,0.0,90,0.00,,,0.11,pywws,2013-08-09 00:54:00,
2013-08-08 21:00:00,72.7,69.6,30.08,West,270,0.0,0.0,90,0.00,,,0.11,pywws,2013-08-09 01:00:00,
2013-08-08 21:07:00,72.7,69.9,30.08,West,270,0.0,0.0,91,0.00,,,0.11,pywws,2013-08-09 01:07:00,
2013-08-08 21:12:00,72.9,70.1,30.09,West,270,0.0,0.0,91,0.00,,,0.11,pywws,2013-08-09 01:12:00,
2013-08-08 21:19:00,73.0,70.3,30.09,West,270,0.0,0.0,91,0.00,,,0.11,pywws,2013-08-09 01:19:00,
2013-08-08 21:26:00,73.0,70.3,30.08,West,270,0.0,0.0,91,0.00,,,0.11,pywws,2013-08-09 01:26:00,
2013-08-08 21:31:00,73.2,70.4,30.08,SW,225,0.0,0.0,91,0.00,,,0.11,pywws,2013-08-09 01:31:00,
2013-08-08 21:37:00,73.0,70.3,30.08,SW,225,0.0,0.0,91,0.00,,,0.11,pywws,2013-08-09 01:37:00,
2013-08-08 21:43:00,72.9,70.1,30.08,West,270,0.0,0.0,91,0.00,,,0.11,pywws,2013-08-09 01:43:00,
2013-08-08 21:49:00,72.9,70.1,30.07,West,270,0.0,0.0,91,0.00,,,0.11,pywws,2013-08-09 01:49:00,
2013-08-08 21:57:00,72.7,69.9,30.08,NE,45,0.0,0.0,91,0.00,,,0.11,pywws,2013-08-09 01:57:00,
2013-08-08 22:02:00,72.7,69.9,30.07,West,270,0.0,0.0,91,0.00,,,0.11,pywws,2013-08-09 02:02:00,
2013-08-08 22:07:00,72.7,69.9,30.08,West,270,0.0,0.0,91,0.00,,,0.11,pywws,2013-08-09 02:07:00,
2013-08-08 22:13:00,72.9,70.1,30.08,West,270,0.0,0.0,91,0.00,,,0.11,pywws,2013-08-09 02:13:00,
2013-08-08 22:21:00,72.9,70.1,30.08,West,270,0.0,0.0,91,0.00,,,0.11,pywws,2013-08-09 02:21:00,
2013-08-08 22:26:00,73.0,70.3,30.07,East,90,0.0,0.0,91,0.00,,,0.11,pywws,2013-08-09 02:26:00,
2013-08-08 22:32:00,73.0,70.3,30.07,South,180,0.0,0.0,91,0.00,,,0.11,pywws,2013-08-09 02:32:00,
2013-08-08 22:38:00,72.9,70.1,30.07,West,270,0.0,0.0,91,0.00,,,0.11,pywws,2013-08-09 02:38:00,
2013-08-08 22:44:00,72.9,70.1,30.07,West,270,0.0,0.0,91,0.00,,,0.11,pywws,2013-08-09 02:44:00,
2013-08-08 22:52:00,72.9,70.1,30.08,West,270,0.0,0.0,91,0.00,,,0.11,pywws,2013-08-09 02:52:00,
2013-08-08 22:59:00,72.9,70.1,30.07,West,270,0.0,0.0,91,0.00,,,0.11,pywws,2013-08-09 02:59:00,
2013-08-08 23:04:00,72.7,69.9,30.07,West,270,0.0,0.0,91,0.00,,,0.11,pywws,2013-08-09 03:04:00,
2013-08-08 23:10:00,72.7,69.9,30.07,West,270,0.0,0.0,91,0.00,,,0.11,pywws,2013-08-09 03:10:00,
2013-08-08 23:15:00,72.7,69.9,30.06,West,270,0.0,0.0,91,0.00,,,0.11,pywws,2013-08-09 03:15:00,
2013-08-08 23:20:00,72.7,69.9,30.06,West,270,0.0,0.0,91,0.00,,,0.11,pywws,2013-08-09 03:20:00,
2013-08-08 23:26:00,72.5,69.7,30.06,South,180,0.0,0.0,91,0.00,,,0.11,pywws,2013-08-09 03:26:00,
2013-08-08 23:32:00,72.5,69.7,30.06,West,270,0.0,0.0,91,0.00,,,0.11,pywws,2013-08-09 03:32:00,
2013-08-08 23:37:00,72.5,69.7,30.06,NW,315,0.0,0.0,91,0.00,,,0.11,pywws,2013-08-09 03:37:00,
2013-08-08 23:42:00,72.5,69.4,30.06,West,270,0.0,0.0,90,0.00,,,0.11,pywws,2013-08-09 03:42:00,
2013-08-08 23:48:00,72.3,69.2,30.06,West,270,0.0,0.0,90,0.00,,,0.11,pywws,2013-08-09 03:48:00,
2013-08-08 23:54:00,72.1,69.0,30.06,SW,225,0.0,0.0,90,0.00,,,0.11,pywws,2013-08-09 03:54:00,